TimeEDT,TemperatureF,Dew PointF,Humidity,Sea Level PressureIn,VisibilityMPH,Wind Direction,Wind SpeedMPH,Gust SpeedMPH,PrecipitationIn,Events,Conditions,WindDirDegrees,DateUTC
12:53 AM,57.9,53.1,84,30.15,10.0,Calm,Calm,-,N/A,,Clear,0,2013-03-11 04:53:00
1:53 AM,57.0,52.0,83,30.13,10.0,Calm,Calm,-,N/A,,Clear,0,2013-03-11 05:53:00
2:53 AM,55.0,51.1,86,30.12,10.0,Calm,Calm,-,N/A,,Clear,0,2013-03-11 06:53:00
3:53 AM,54.0,50.0,86,30.10,10.0,Calm,Calm,-,N/A,,Clear,0,2013-03-11 07:53:00
4:53 AM,52.0,48.9,89,30.06,10.0,ESE,3.5,-,N/A,,Clear,120,2013-03-11 08:53:00
5:53 AM,54.0,48.9,83,30.06,6.0,Calm,Calm,-,N/A,,Haze,0,2013-03-11 09:53:00
6:53 AM,53.1,50.0,89,30.07,7.0,Calm,Calm,-,N/A,,Clear,0,2013-03-11 10:53:00
7:53 AM,53.1,50.0,89,30.06,7.0,Calm,Calm,-,N/A,,Clear,0,2013-03-11 11:53:00
8:53 AM,61.0,57.0,87,30.08,10.0,Calm,Calm,-,N/A,,Clear,0,2013-03-11 12:53:00
9:53 AM,70.0,55.0,59,30.07,10.0,SSE,10.4,-,N/A,,Clear,160,2013-03-11 13:53:00
10:53 AM,73.0,52.0,48,30.08,10.0,SSE,10.4,20.7,N/A,,Clear,160,2013-03-11 14:53:00
11:53 AM,73.0,51.1,46,30.08,10.0,SSE,12.7,-,N/A,,Clear,150,2013-03-11 15:53:00
12:53 PM,75.0,53.1,46,30.06,10.0,Variable,6.9,19.6,N/A,,Mostly Cloudy,0,2013-03-11 16:53:00
1:53 PM,73.9,54.0,50,30.04,10.0,SSE,11.5,21.9,N/A,,Overcast,160,2013-03-11 17:53:00
2:53 PM,75.0,54.0,48,29.99,10.0,South,12.7,23.0,N/A,,Overcast,170,2013-03-11 18:53:00
3:53 PM,73.9,54.0,50,29.96,10.0,SSE,11.5,-,N/A,,Partly Cloudy,160,2013-03-11 19:53:00
4:53 PM,73.0,55.9,55,29.95,10.0,SSE,15.0,-,N/A,,Scattered Clouds,150,2013-03-11 20:53:00
5:53 PM,73.0,55.0,53,29.95,10.0,SSE,13.8,20.7,N/A,,Mostly Cloudy,150,2013-03-11 21:53:00
6:53 PM,71.1,55.9,59,29.94,10.0,SE,13.8,-,N/A,,Partly Cloudy,140,2013-03-11 22:53:00
7:53 PM,71.1,55.0,57,29.92,10.0,SSE,11.5,20.7,N/A,,Clear,150,2013-03-11 23:53:00
8:53 PM,69.1,54.0,58,29.93,10.0,SSE,13.8,-,N/A,,Clear,150,2013-03-12 00:53:00
9:53 PM,69.1,57.0,65,29.95,10.0,SSE,10.4,-,N/A,,Scattered Clouds,160,2013-03-12 01:53:00
10:53 PM,69.1,57.9,68,29.96,10.0,South,8.1,-,N/A,,Partly Cloudy,180,2013-03-12 02:53:00
11:53 PM,66.0,59.0,78,29.93,10.0,South,5.8,-,0.00,,Clear,170,2013-03-12 03:53:00